Regional Weather Roundup
Issued by NWS

Home | Current Version | Previous Version | Text Only | Print | Product List | Glossary On
Versions: 1 2 3 4 5 6 7 8 9 10 11 12 13 14 15 16 17 18 19 20 21 22 23 24 25 26 27 28 29 30 31 32 33 34 35 36 37 38 39 40 41 42 43 44 45 46 47 48 49 50
000
ASHW40 PHFO 271610
RWRHI

WEATHER ROUNDUP FOR HAWAII
NATIONAL WEATHER SERVICE HONOLULU HI
600 AM HST WED MAY 27 2015

THIS IS AN AUTOMATED REPORT THAT HAS NOT BEEN QUALITY CONTROLLED.

NOTE..."FAIR" INDICATES FEW OR NO CLOUDS BELOW 12,000 FEET WITH NO
SIGNIFICANT WEATHER AND/OR OBSTRUCTIONS TO VISIBILITY.

* - THESE SITES REPORT LIMITED FIELDS

HIZ001>004-271700-
KAUAI-NIIHAU-

CITY           SKY/WX    TMP DP  RH WIND       PRES   REMARKS
LIHUE APT      MOCLDY    68  63  83 S5        29.95S
PORT ALLEN*    NOT AVBL
POIPU*           N/A     70 N/A N/A NE5         N/A
PRINCEVILLE*     N/A     64 N/A N/A MISG        N/A
KOKOLE POINT*  NOT AVBL
MOLOAA DAIRY*  NOT AVBL
WAIMEA HTS*    NOT AVBL
PUU OPAE*      NOT AVBL
PUU LUA*       NOT AVBL
MAKAHA RIDGE*  NOT AVBL
$$

HIZ005>011-271700-
OAHU-

CITY           SKY/WX    TMP DP  RH WIND       PRES   REMARKS
HONOLULU       PTCLDY    69  62  78 CALM      29.92S
KALAELOA       CLEAR     64  59  83 CALM      29.94R
KANEOHE MCB    CLOUDY    71  66  84 SW3       29.91S
WHEELER FIELD  FAIR      64  59  82 W2        29.93R
BELLOWS*       NOT AVBL
KAHUKU*        NOT AVBL
WHEELER*       NOT AVBL
WAIANAE HARBOR NOT AVBL
DILLINGHAM*      N/A     66  59  77 MISG        N/A
KAHUKU TRN*      N/A     64  63  94 SE2         N/A
KAWAILOA*        N/A     64  59  82 E3          N/A
KII*             N/A     68  64  88 CALM        N/A
MAKUA RANGE*     N/A     68  57  68 SE5         N/A
OAHU FOREST NW NOT AVBL
SCHOFIELD BRK*   N/A     61  57  88 MISG        N/A
SCHOFIELD S*   NOT AVBL
WAIANAE VLY*   NOT AVBL
KUAOKALA*      NOT AVBL
HONOULIUULI*   NOT AVBL
MOKUOLOE IS*   NOT AVBL
PALEHUA*       NOT AVBL
WAIAWA PHB*    NOT AVBL
$$

HIZ012>013-271700-
MOLOKAI-

CITY           SKY/WX    TMP DP  RH WIND       PRES   REMARKS
MOLOKAI AIRPT  PTCLDY    68  62  81 CALM      29.94R
KALAUPAPA      NOT AVBL
MAKAPULAPAI*   NOT AVBL
MOLOKAI 1*     NOT AVBL
PUU ALII*      NOT AVBL
$$

HIZ016-271700-
KAHOOLAWE-

CITY           SKY/WX    TMP DP  RH WIND       PRES   REMARKS
KAHOOLAWE*     NOT AVBL
HAKIOAWA*      NOT AVBL
HONOKANAIA*      N/A     74  64  70 VRB9      29.94S
KANELOA*         N/A     70  63  78 NE10G17   29.98R
KEALIALALO*    NOT AVBL
LUA MAKIKA*    NOT AVBL
$$

HIZ014>015-271700-
LANAI-

CITY           SKY/WX    TMP DP  RH WIND       PRES   REMARKS
LANAI CITY     CLOUDY    64  60  87 E6        29.97R
LANAI 1*       NOT AVBL
$$

HIZ017>028-271700-
MAUI-

CITY           SKY/WX    TMP DP  RH WIND       PRES   REMARKS
KAHULUI        PTCLDY    72  64  76 CALM      29.93S
KAPALUA-W MAUI MOCLDY    68  63  83 NE7       29.94
HANA AIRPORT     N/A     68  66  94 CALM      29.96S
HANA*          NOT AVBL
HALEAKALA SUMM NOT AVBL
MAALAEA BAY*   NOT AVBL
HALEAKALA*     NOT AVBL
KAUPO GAP*     NOT AVBL
KULA 1*          N/A     52  47  82 S13G24      N/A
$$

HIZ023>026-271700-
BIG ISLAND OF HAWAII COAST AND LOWER SLOPES-

CITY           SKY/WX    TMP DP  RH WIND       PRES   REMARKS
KAILUA KONA    CLOUDY    76  64  66 NE5       29.90R
HILO           CLOUDY    69  64  84 CALM      29.94R
HONOKAA*       NOT AVBL
KAWAIHAE MWT*  NOT AVBL
KAWAIHAE*        N/A     75 N/A N/A NE2         N/A
SOUTH POINT*   NOT AVBL
UPOLU AIRPORT* NOT AVBL
KAMUELA*       CLOUDY    64  57  77 NE6       30.02S
HAKALAU*         N/A     45  43  93 SW3         N/A
KALOKO-HONOKO* NOT AVBL
PALI 2*          N/A     63  63 100 N3          N/A
KEALAKOMO*       N/A     88  82  84 N2          N/A  HX 108
KAUPULEHU*     NOT AVBL
KAPAPALA*        N/A     64  63  97 VRB2        N/A
LOWER KAHUKU*  NOT AVBL
PUHE CS*       NOT AVBL
PUHO CS*       NOT AVBL
PTA KEAMUKU*     N/A     61  55  82 CALM        N/A
WAIKOLOA*      NOT AVBL
$$

HIZ027>028-271700-
BIG ISLAND OF HAWAII INTERIOR AND SUMMMITS-

CITY           SKY/WX    TMP DP  RH WIND       PRES   REMARKS
BRADSHAW FIELD CLOUDY    47  46  95 SE3       30.21R
MK VISITOR CEN NOT AVBL
MAUNA KEA*       N/A     36  12  38 NW33        N/A  WCI  22
MAUNA LOA*       N/A     46  14  27 MISG        N/A
MAUNA LOA 1*   NOT AVBL
PTA KIPUKA*      N/A     55  54  94 SE3         N/A
PTA RANGE 17*    N/A     48  46  93 S5          N/A
PTA WEST*        N/A     55  54  94 E3          N/A
NENE CABIN*    NOT AVBL
AHUMOA*        NOT AVBL
PTA PORTABLE*  NOT AVBL
PUU MALI*        N/A     48  46  93 E8          N/A
$$

HIC003-271700-
NORTHWEST ISLANDS-

CITY           SKY/WX    TMP DP  RH WIND       PRES   REMARKS
MIDWAY ISLAND  PTCLDY   N/A N/A N/A CALM      30.12S
MIDWAY NOS*    NOT AVBL
FRENCH FRIGATE NOT AVBL
$$

PHZ110>124-180-271700-
BUOY REPORTS

STATION/POSITION TIME  TEMP    WIND        PRES    WAVE   SWELL
                       AIR SEA DIR/SP/G            HT/PER HT/DIR
                 (UTC) (F)     (DEG/KT/KT) (MB)    (FT/S) (FT/D)
BUOY 51001       NOT AVBL
BUOY 51101       1600   72 74   60/ 12/ 14 1015.1R   6/14   5/140
BUOY 51100       NOT AVBL
BUOY 51002       1600   76 79   30/  2/  4 1012.4R   5/13   5/230
BUOY 51003       1500   76 79   30/  4/  6 1012.8F   5/13   5
BUOY 51004       1549   77 78  120/ 14/ 16 1012.7F   6/ 9   5/ 80
BARBERS PT BUOY  NOT AVBL
WAIMEA BAY BUOY  1600      77                N/A     3/ 8
KAILUA BAY BUOY  1600      77                N/A     4/ 8   2/140
LANAI BUOY       NOT AVBL
BARBERS PT 2     1600      76                N/A     3/13   3/190
PAUWELA MAUI     1600      77                N/A     3/11
HILO             1600      77                N/A     4/ 8   2
KANEOHE BAY BUOY 1600      77                N/A     4/ 8   2/ 10
HANALEI KAUAI    1600      78                N/A     5/ 8   2/320
KAHULUI HARBOR   1600   72 78  290/  5/  5 1013.2S
HONOLULU HARBOR  1600   72 76   60/  4/  5 1013.4R
KILO NALU        NOT AVBL
HILO HARBOR      1600   70 76  140/  2/  3 1013.4R
MOKUOLOE         1600   70 78  190/  2/  3 1013.6S
NAWILIWILI       1600   69 78  140/  6/  6 1013.9R
WHOTS BUOY       NOT AVBL
BUOY 51028       NOT AVBL
$$

......................KEY........................................
  SKY/WX - SKY CONDITIONS/PRESENT WEATHER
  TMP    - TEMPERATURE IN FAHRENHEIT
  DWPT   - DEWPOINT IN FAHRENHEIT
  RH     - RELATIVE HUMIDITY IN PERCENT
  WIND   - DIRECTION AND SPEED /MPH FOR ISLANDS...KTS FOR BUOYS/
  PRES   - MEAN SEA LEVEL PRESSURE IN INCHES OF HG
  VSB    - VISIBILITY IN MILES
  HX     - HEAT INDEX
  WCI    - WIND CHILL INDEX
  VRB    - VARIABLE WIND DIRECTION
  N/A    - NOT AVAILABLE


USA.gov is the U.S. government's official web portal to all federal, state and local government web resources and services.